Location: Amsterdam
(30.7274°N, 84.4357°W)
Time: 21:37:04
(UTC+00:00)

Tiros 1 despin weight - Pass Details

Date: 23 February 2026
Orbit: 556 x 593 km, 48.2° (Epoch: 3 March)

Event Time Altitude Azimuth Distance (km) Brightness Sun altitude
Rises 01:25:44 0° 309° (NW) 2,731 ? -25.3°
Reaches altitude 10° 01:27:59 10° 309° (NW) 1,835 ? -25.8°
Enters shadow 01:31:09 50° 300° (WNW) 711 ? -26.5°
Maximum altitude 01:32:10 80° 223° (SW) 568 - -26.7°
Drops below altitude 10° 01:36:22 10° 136° (SE) 1,840 - -27.6°
Sets 01:38:38 0° 135° (SE) 2,738 - -28.1°
